www.pogodaiklimat.ru

Погода и климат >> Архив погоды >> Россия >> Красноярский край >> Казыр


ПОГОДА в Казыре

  • Прогноз погоды в Казыре
  • Монитор погоды в Казыре

АРХИВ ПОГОДЫ в Казыре

Время (UTC), дата Ветер
(напр.,м/с)
 
Видим.   Явления Облачность Т
(С)
Тd
(С)
f
(%)
Тe
(С)
Тes
(С)
Комфортность P
(гПа)
Po
(гПа)
Тmin
(С)
Tmax
(С)
R
(мм)
R24
(мм)
S
(см)
00 14.03 Ю 2 50 км 10/0
[As op]
-2.3 -2.6 98 -7 -7 1028.4 972.6 -2.7 42
03 14.03 Ю 1 50 км 9/0
[Ac trans Ci fib]
+1.3 -2.2 77 -0 +3 1028.7 973.6
06 14.03 З 4
{10}
50 км 8/0
[Ci fib]
+8.8 -7.9 30 +7 +11 1027.2 973.5
09 14.03 З 2
{10}
50 км 9/0
[Ac und]
+9.3 -7.9 29 +8 +10 1025.9 972.5
12 14.03 штиль 0 50 км 10/10 1000 м
[Sc]
+3.0 -3.5 62 +2 +2 1027.8 973.1 +10.1
15 14.03 штиль 0 н/о 10/0
[Ac As]
+0.6 -3.3 75 -0 -0 1028.8 973.5
18 14.03 ЮВ 1 н/о 9/0
[Ac trans Ci fib]
-0.4 -2.8 84 -2 -2 1028.7 973.2
21 14.03 ЮВ 2 н/о 4/0
[Ci fib]
-0.5 -3.3 81 -4 -4 1028.1 972.7
00 15.03 ЮВ 1 50 км 3/0
[Ci fib]
-0.2 -2.3 86 -2 -2 1027.4 972.0 -0.5 40
03 15.03 ЮВ 2 50 км 6/0
[Ci fib]
+3.6 -1.7 68 +1 +5 1025.1 970.6 -1.6
06 15.03 Ю 2 50 км 3/0
[Ci fib]
+11.2 -2.6 38 +11 +17 1020.9 968.1
09 15.03 СЗ 1 50 км 3/0
[Ci fib]
+16.5 -6.5 20 +18 +21 1017.0 965.2
12 15.03 штиль 0 50 км ясно +3.5 -3.5 60 +3 +3 1018.2 964.1 +17.8
15 15.03 штиль 0 н/о ясно -1.7 -4.8 79 -3 -3 1019.4 964.3
18 15.03 З 1 н/о ясно -2.9 -5.6 82 -5 -5 1020.0 694.4
21 15.03 ЮВ 2 н/о ясно -0.7 -5.6 69 -4 -4 1019.6 964.7
00 16.03 В 2 50 км ясно -1.7 -5.8 74 -5 -5 1019.6 964.5 -3.6 38
03 16.03 ЮВ 2 50 км ясно +3.2 -5.5 53 +1 +5 1018.5 964.4
06 16.03 Ю 2 50 км 9/0
[Ci]
+10.9 -5.6 31 +10 +16 1014.9 962.2
09 16.03 З 2 50 км 4/0
[Ci fib]
+15.5 -9.1 17 +16 +19 1011.5 959.9
12 16.03 штиль 0 50 км 4/0
[Ac und]
+3.8 -3.8 58 +3 +3 1012.2 958.4 +17.0
15 16.03 штиль 0 н/о 10/0
[Ac As]
+1.2 -3.3 72 0 0 1012.2 958.0
18 16.03 СЗ 2 н/о 10/0
[Ac As]
+3.4 -1.6 70 +1 +1 1015.1 961.1
21 16.03 штиль 0 н/о 10/0
[Ac As]
+0.8 +0.3 96 -1 -1 1017.2 962.6
00 17.03 ЮЗ 1 50 км 10/0
[Ac As]
+1.3 -2.8 74 -0 -0 1016.9 962.5 -0.6 36
03 17.03 ЮЗ 2 10 км осадки на расстоянии 10/10 1000 м
[Sc]
+1.3 -6.2 57 -2 -2 1018.2 963.7
06 17.03 З 3 50 км 10/6 600 м
[Cb cap As op]
+1.9 -6.5 54 -2 -1 1017.2 962.8
09 17.03 ЮЗ 1 50 км 9/8 1000 м
[Sc diur, vesp Ac As]
+2.5 -8.3 45 +2 +2 1016.2 962.0
12 17.03 З 1 10 км осадки на расстоянии 10/10 600 м
[Cb cap]
+0.5 -6.9 58 -1 -1 1016.6 962.0 +3.3
15 17.03 ЮЗ 1 н/о 10/10 600 м
[Cb cap]
-1.6 -6.4 70 -3 -3 1018.1 963.0
18 17.03 штиль 0 н/о 10/0
[As op]
-3.4 -6.6 78 -4 -4 1019.6 964.0
21 17.03 СЗ 1 н/о 10/0
[Ac As]
-3.9 -7.2 78 -6 -6 1021.5 965.6
00 18.03 СЗ 2 10 км осадки на расстоянии 10/0
[Cs]
-4.8 -10.1 66 -9 -9 1023.9 967.7 -4.8 35
03 18.03 З 2 50 км 9/3 1000 м
[Cu med, cong Ci fib]
-4.1 -10.9 59 -8 -5 1026.8 970.7 -5.4
06 18.03 З 2 10 км осадки на расстоянии 8/8 600 м
[Cb cap]
-2.9 -11.5 51 -6 -5 1028.1 972.1
09 18.03 СЗ 2 50 км {ливн. осадки} 9/5 600 м
[Cb cap Ac lent Ci fib]
-2.0 -10.5 52 -5 -4 1028.1 972.3
12 18.03 З 2 50 км {ливн. осадки} 9/8 600 м
[Cb cap Ac trans]
-2.9 -11.5 51 -6 -6 1029.8 973.7 -0.7 0.0
15 18.03 З 1 н/о 10/10 600 м
[Cb cap]
-4.1 -8.7 70 -6 -6 1031.7 975.2
18 18.03 штиль 0 н/о {ливн. осадки} 9/8 600 м
[Cb cap Ac As]
-5.0 -7.8 81 -6 -6 1032.2 975.5
21 18.03 штиль 0 н/о слаб. ливневой снег 10/10 600 м
[Cb cap]
-5.8 -7.3 89 -7 -7 1033.1 976.4
00 19.03 штиль 0 10 км осадки на расстоянии {ливн. осадки} 10/10 600 м
[Cb cap]
-6.9 -7.4 96 -8 -8 1033.6 976.5 -6.9 0.5 35
03 19.03 штиль 0 50 км 8/8 600 м
[Cb cap]
-2.9 -9.6 60 -4 -2 1032.4 976.2 -7.7
06 19.03 З 1 50 км {ливн. осадки, морось} 10/10 600 м
[Cb cap]
-2.1 -10.6 52 -4 -4 1031.5 975.5
09 19.03 З 1 50 км 9/8 600 м
[Cb cap Ac trans]
-1.3 -11.3 46 -3 -2 1029.9 974.2
12 19.03 штиль 0 50 км 4/4 1000 м
[Sc diur, vesp]
-2.8 -9.9 58 -3 -3 1029.3 973.2 -0.1 0.0
15 19.03 штиль 0 н/о 10/3 1000 м
[Sc Cs]
-5.3 -9.4 73 -6 -6 1029.8 973.2
18 19.03 штиль 0 н/о 8/0
[Ci fib]
-8.6 -11.0 83 -9 -9 1031.3 974.1
21 19.03 штиль 0 н/о 10/0
[Cs]
-10.8 -12.1 90 -11 -11 1032.6 974.7
00 20.03 Ю 1 50 км 9/0
[Ac trans]
-9.9 -12.0 85 -12 -12 1033.5 975.7 -10.9 35
03 20.03 Ю 1 10 км слаб. снег 10/0
[As op]
-5.3 -9.4 73 -7 -6 1033.0 976.3
06 20.03 З 2 50 км {снег} 10/10 600 м
[Cb cap]
-0.3 -8.5 54 -3 -3 1031.4 975.8
09 20.03 З 2 50 км {ливн. осадки} 9/8 600 м
[Cb cap Ci sp]
+0.3 -7.6 55 -3 -2 1031.4 976.0
12 20.03 штиль 0 10 км в посл. час ливневой снег 10/10 600 м
[Cb cap]
-2.5 -6.5 74 -3 -3 1033.2 977.1 +0.4 0.0
15 20.03 штиль 0 н/о слаб. ливневой снег 8/8 600 м
[Cb cap]
-3.4 -5.9 83 -4 -4 1034.2 977.9
18 20.03 штиль 0 н/о {ливн. осадки} 8/8 600 м
[Cb cap]
-4.2 -6.1 87 -5 -5 1034.5 977.9

 

Местоположение метеостанции Казыр (Красноярский край, Россия): широта 53.68 долгота 94.17 высота над уровнем моря 446 м.

В архиве по умолчанию представлена погода в Казыре за последнюю неделю. Архивные данные за месяц целиком и за предыдущие месяцы, начиная с января 2011 года, Вы можете получить, выбрав интересующий диапазон дат из раскрывающегося списка и нажав кнопку "Ввод!".


*Определитесь, кто Вы:
робот инопланетянин человек

Внимание! Время в таблицах - всемирное. Для получения местного времени необходимо прибавить поправку, которая равна 7 ч.

Смотрите также архив погоды в соседних городах и на ближайших метеорологических станциях:

Погода в Каратузском (Красноярский край, Россия) (87 км)
Погода в Курагино (Красноярский край, Россия) (101 км)
Погода в Щетинкино (Красноярский край, Россия) (106 км)
Погода в Артемовске (Красноярский край, Россия) (107 км)
Погода в Оленьей Речке (Красноярский край, Россия) (116 км)
Погода в Ермаковском (Красноярский край, Россия) (123 км)
Погода в Теси (Красноярский край, Россия) (131 км)
Погода в Идринском (Красноярский край, Россия) (154 км)
Погода в Минусинске (Красноярский край, Россия) (163 км)
Погода в Анастасино (Красноярский край, Россия) (168 км)

Пояснения к столбцам:

Ветер - указаны скорость ветра в м/с - средняя за 10 мин, порывы в срок и между сроками (в фигурных скобках) и направление, откуда дует ветер: С - северный, СВ - северо-восточный, В - восточный, ЮВ - юго-восточный, Ю - южный, ЮЗ - юго-западный, З - западный, СЗ - северо-западный.
Видимость - горизонтальная дальность видимости в метрах или километрах. При видимости от 1 до 10 км при отсутствии осадков обычно наблюдается дымка, при ухудшении видимости до 1 км и менее - туман. В сухую погоду видимость может ухудшаться дымом, пылью или мглою.
Явления - указаны атмосферные явления, наблюдавшиеся в срок или в последний час перед сроком; фигурными скобками обозначены явления, наблюдавшиеся между сроками (за 1-3 часа до срока); квадратными скобками обозначены град или гололедные отложения с указанием их диаметра в мм.
Облачность - указаны через наклонную черту общая и нижняя облачность в баллах и высота нижней границы облаков в метрах; квадратными скобками обозначены формы облаков: Ci - перистые, Cs - перисто-слоистые, Cc - перисто-кучевые, Ac - высококучевые, As - высокослоистые, Sc - слоисто-кучевые, Ns - слоисто-дождевые, Cu - кучевые, Cb - кучево-дождевые. Подробнее классификацию облаков см. в Атласе облаков (PDF).
T - Температура воздуха - температура, измеренная на высоте 2 м над землей.
Td - Температура точки росы - температура, при понижении до которой содержащийся в воздухе водяной пар достигнет насыщения.
f - Относительная влажность воздуха - влажноcть воздуха, измеренная на высоте 2 м над землей.
Te - Эффективная температура - температура, которую ощущает одетый по сезону человек в тени. Характеристика душности погоды. При расчете учитывается влияние влажности воздуха и скорости ветра на теплоощущения человека.
Tes - Эффективная температура на солнце - температура, которую ощущает человек, с поправкой на солнечный нагрев. Характеристика знойности погоды. Зависит от высоты солнца над горизонтом, облачности и скорости ветра. Ночью, в пасмурную погоду, а также при ветре 12 м/с и более поправка равна нулю.
P - Атмосферное давление - приведенное к уровню моря атмосферное давление.
Po - Атмосферное давление - измеренное на уровне метеостанции атмосферное давление.
Tmin - Минимальная температура - минимум температуры воздуха на высоте 2 м над землей.
Tmax - Максимальная температура - максимум температуры воздуха на высоте 2 м над землей.
R - Количество осадков - Количество выпавших осадков за период времени, мм. При наведении курсора мыши на число - период времени, за который выпало указанное количество осадков.
R24 - Количество осадков - Количество выпавших осадков за 24 часа, мм.
S - Снежный покров - Высота снежного покрова, см. При наведении курсора мыши на число - состояние снежного покрова и степень покрытия местности в баллах.